AirNav   Air Wisconsin Up To $57,000 Bonus
 
 1597 users online  

KVVS Joseph A Hardy Connellsville Airport
Connellsville, Pennsylvania, USA

GOING TO CONNELLSVILLE?


FAA INFORMATION EFFECTIVE 08 OCTOBER 2020

Location

FAA Identifier: VVS
Lat/Long: 39-57-32.6000N 079-39-26.7000W
39-57.543333N 079-39.445000W
39.9590556,-79.6574167
(estimated)
Elevation: 1264.4 ft. / 385.4 m (surveyed)
Variation: 08W (1990)
From city: 5 miles SW of CONNELLSVILLE, PA
Time zone: UTC -4 (UTC -5 during Standard Time)
Zip code: 15431

Airport Operations

Airport use: Open to the public
Activation date: 04/1940
Control tower: no
ARTCC: CLEVELAND CENTER
FSS: ALTOONA FLIGHT SERVICE STATION
NOTAMs facility: AOO (NOTAM-D service available)
Attendance: 0800 - 1700
Wind indicator: lighted
Segmented circle: yes
Lights: ACTVT REIL RWY 05; PAPI RWY 05, 23 & 14. MIRL RWY 05/23 & 14/32 - CTAF.
Beacon: white-green (lighted land airport)
Operates sunset to sunrise.
Landing fee: yes, LDG FEE FOR ALL ACFT OVER 6000 LBS GWT; WAIVED FOR FUEL PURCHASE.

Airport Communications

CTAF/UNICOM: 122.8
WX AWOS-3P: 133.325 (724-626-8745)
CLARKSBURG APPROACH: 119.425
CLARKSBURG DEPARTURE: 119.425
WX AWOS-3 at FWQ (17 nm NW): 118.475 (724-379-5815)
  • APCH/DEP SVC PRVDD BY CLEVELAND ARTCC (ZOB) ON FREQS 124.4/327.1 (ALTOONA RCAG) WHEN CLARKSBURG APCH CTL CLSD.

Nearby radio navigation aids

VOR radial/distance  VOR name  Freq  Var
IHDr272/13.8INDIAN HEAD VORTAC108.2006W
MGWr026/25.9MORGANTOWN VOR/DME111.6005W
AGCr146/26.0ALLEGHENY VOR/DME110.0009W

 
NDB name  Hdg/Dist  Freq  Var  ID
CAMOR049/6.129908WVV ...- ...-
STOYSTOWN267/34.920910WSYS ... -.-- ...

Airport Services

Fuel available: 100LL JET-A
Parking: hangars and tiedowns
Airframe service: MAJOR
Powerplant service: MAJOR

Runway Information

Runway 5/23

Dimensions: 3833 x 100 ft. / 1168 x 30 m
Surface: asphalt, in fair condition
Weight bearing capacity: 
Single wheel: 12.5
Runway edge lights: medium intensity
Operational restrictions: MARKINGS FADED.
RUNWAY 5  RUNWAY 23
Latitude: 39-57.405628N39-57.884745N
Longitude: 079-39.739762W079-39.205640W
Elevation: 1219.6 ft.1264.4 ft.
Traffic pattern: leftleft
Runway heading: 049 magnetic, 041 true229 magnetic, 221 true
Markings: nonprecision, in good conditionbasic, in good condition
Visual slope indicator: 2-light PAPI on left (3.00 degrees glide path)2-light PAPI on right (3.00 degrees glide path)
Runway end identifier lights: yes
Touchdown point: yes, no lightsyes, no lights
Instrument approach: LOCALIZER
Obstructions: none
RWY 05 9 FT TREES 137 FT FM RWY END 117 FT RT
26 ft. trees, 289 ft. from runway, 239 ft. right of centerline, 3:1 slope to clear
RWY 23 25 FT TREES 46 FT FM RWY END 226 FT RT; 27 FT TREES 83 FT FM RWY END 222 FT RT; 27 FT TREES 159 FT FM RWY END 222 FT RT.

Runway 14/32

Dimensions: 2404 x 100 ft. / 733 x 30 m
Surface: asphalt, in fair condition
Weight bearing capacity: 
Single wheel: 12.5
Runway edge lights: medium intensity
THLD & EDGE LGT OTS INDEF. MARKINGS FADED.
Runway edge markings: RWY 32 MARKINGS FADED.
RUNWAY 14  RUNWAY 32
Latitude: 39-57.508242N39-57.250210N
Longitude: 079-39.597182W079-39.207013W
Elevation: 1227.5 ft.1236.4 ft.
Traffic pattern: leftleft
Runway heading: 139 magnetic, 131 true319 magnetic, 311 true
Markings: basic, in poor conditionbasic, in poor condition
Visual slope indicator: 2-light PAPI on left (3.00 degrees glide path)
PAPI OTS INDEF.
Touchdown point: yes, no lightsyes, no lights
Obstructions: 15 ft. trees, 331 ft. from runway, 126 ft. right of centerline, 9:1 slope to clear14 ft. trees, 429 ft. from runway, 17 ft. right of centerline, 16:1 slope to clear

Airport Ownership and Management from official FAA records

Ownership: Publicly-owned
Owner: FAYETTE COUNTY AIRPORT AUTHORITY
988 SKY DRIVE
LEMONT FURNACE, PA 15456
Phone 724-628-2276
Manager: JOHN NECKERAUER
988 SKY DRIVE
LEMONT FURNACE, PA 15456
Phone 724-628-2276
AFT HRS 412-916-6282.

Airport Operational Statistics

Aircraft based on the field: 25
Single engine airplanes: 23
Multi engine airplanes: 2
    
Aircraft operations: avg 84/day *
48% local general aviation
38% transient general aviation
15% air taxi
<1% military
* for 12-month period ending 19 November 2019

Additional Remarks

RWY 23 HAS A 265 FT RELOCATED THLD FOR TAXI ONLY. RWY 14 HAS A 315 FT RELOCATED THLD FOR TAXI ONLY, RWY 32 HAS A 260 FT RELOCATED THLD FOR TAXI ONLY.
DEER & BIRDS ON & INVOF ARPT.
TWY B CLSD TO ACFT WITH WINGSPAN MORE THAN 40 FT.
FOR CD CTC JOHNSTOWN APCH AT 814-532-5960, WHEN APCH CLSD CTC CLEVELAND ARTCC AT 440-774-0234.

Instrument Procedures

NOTE: All procedures below are presented as PDF files. If you need a reader for these files, you should download the free Adobe Reader.

NOT FOR NAVIGATION. Please procure official charts for flight.
FAA instrument procedures published for use from 08 October 2020 at 0901Z to 05 November 2020 at 0900Z.

 
IAPs - Instrument Approach Procedures
RNAV (GPS) RWY 05 **CHANGED**   download (272KB)
LOC RWY 05 **CHANGED**   download (246KB)
NOTE: Special Take-Off Minimums/Departure Procedures apply   download (208KB)

Other nearby airports with instrument procedures:

KFWQ - Rostraver Airport (17 nm NW)
KLBE - Arnold Palmer Regional Airport (22 nm NE)
KWAY - Greene County Airport (22 nm W)
KMGW - Morgantown Municipal Airport-Walter L. Bill Hart Field (22 nm SW)
G05 - Finleyville Airpark (24 nm NW)
 
Loc | Ops | Rwys | IFR | FBO | Links
Com | Nav | Svcs | Stats | Notes
Area around KVVS (Joseph A Hardy Connellsville Airport)
 
Road maps at: MapQuest Bing Google
 
Aerial photo
WARNING: Photo may not be current or correct
Aerial photo of KVVS (Joseph A Hardy Connellsville Airport)
Photo by John Diehl
Photo taken 23-Sep-2007

Do you have a better or more recent aerial photo of Joseph A Hardy Connellsville Airport that you would like to share? If so, please send us your photo.

 
Sectional chart

 
Airport distance calculator
Flying to Joseph A Hardy Connellsville Airport? Find the distance to fly.

From to KVVS

Sunrise and sunset
Times for 21-Oct-2020
 Local
(UTC-4)
 Zulu
(UTC)
Morning civil twilight07:1011:10
Sunrise07:3811:38
Sunset18:2922:29
Evening civil twilight18:5622:56

Current date and time
Zulu (UTC)  21-Oct-2020 20:07:05
Local (UTC-4)  21-Oct-2020 16:07:05
 
METAR
KP53 
17nm NW 
211956Z AUTO 26008KT 230V310 06/M01 A3006 RMK AO1 SLP186 T00561011
KLBE 
22nm NE 
211947Z 24005G16KT 20SM BKN060 25/15 A3019
KMGW 
22nm SW 
211953Z VRB05KT 10SM BKN055 27/12 A3021 RMK AO2 SLP224 T02670117
KAGC 
26nm NW 
211953Z 26009G14KT 10SM OVC039 23/16 A3018 RMK AO2 SLP220 T02280161
K2G4 
27nm SE 
211955Z AUTO 24006KT 10SM CLR 22/09 A3027 RMK AO1
KAFJ 
30nm W 
211956Z AUTO 25009G17KT 10SM OVC036 23/17 A3022 RMK AO2 SLP229 T02330172
K2G9 
30nm E 
211955Z AUTO 25009G16KT 10SM SCT049 22/12 A3024 RMK AO2
TAF
KLBE 
22nm NE 
211720Z 2118/2218 24010G18KT P6SM BKN050 FM212300 VRB04KT P6SM BKN050 FM221500 21005KT P6SM SCT150
KMGW 
22nm SW 
211720Z 2118/2218 24010G16KT P6SM SCT090 FM220000 VRB04KT P6SM SCT100
KAGC 
26nm NW 
211720Z 2118/2218 24010G18KT P6SM BKN050 FM212300 25005KT P6SM BKN035 FM220600 VRB04KT P6SM BKN020 FM220900 VRB04KT P6SM BKN009
NOTAMs
Click for the latest NOTAMs
NOTAMs are issued by the DoD/FAA and will open in a separate window not controlled by AirNav.

 

 
 

FBO, Fuel Providers, and Aircraft Ground Support

  
 Business Name 
 
 Contact 
 
 Services / Description 
 
Fuel Prices
 
Comments
  
Fayette County Airport Authority 724-628-2276
[email]
Airport management, Aviation fuel, Aircraft parking (ramp or tiedown), Flight training, Aircraft rental, Public telephone, Restrooms

More info about Fayette County Airport Authority
Phillips 66
100LL Jet A
FS $4.80 $3.65 
SS $4.70 $3.65 
 Updated 05-Oct-2020
 
   2 read write
FS=Full service
SS=Self service
Update Fuel Prices
 

Would you like to see your business listed on this page?

 If your business provides an interesting product or service to pilots, flight crews, aircraft, or users of the Joseph A Hardy Connellsville Airport, you should consider listing it here.  To start the listing process, click on the button below
 
Add a business
 

Other Pages about Joseph A Hardy Connellsville Airport

Update a link
 
Copyright © AirNav, LLC. All rights reserved. Privacy Policy  Contact